Weather History for Los Angeles, CA

Change the Weather History Date:

Tuesday, November 13, 2012

  Actual Average Record
Temperature  
Mean Temperature 66 °F 62 °F  
Max Temperature 80 °F 70 °F 90 °F (1949)
Min Temperature 52 °F 54 °F 43 °F (1985)
Degree Days  
Heating Degree Days 0 4  
Month to date heating degree days 37 43  
Since 1 July heating degree days 54 87  
Cooling Degree Days 1 1  
Month to date cooling degree days 23 13  
Year to date cooling degree days 734 544  
Growing Degree Days 16 (Base 50)    
Moisture  
Dew Point 24 °F    
Average Humidity 30    
Maximum Humidity 52    
Minimum Humidity 8    
Precipitation  
Precipitation 0.00 in 0.04 in 1.18 in (1946)
Month to date precipitation 0.03 0.39  
Year to date precipitation 4.79 10.05  
Since 1 July precipitation 0.18 1.24  
Sea Level Pressure  
Sea Level Pressure 30.06 in    
Wind  
Wind Speed 5 mph (NE)    
Max Wind Speed 13 mph    
Max Gust Speed 18 mph    
Visibility 10 miles    
Events      
T = Trace of Precipitation, MM = Missing Value Source: NWS Daily Summary

Daily Weather History Graph

Daily Weather History Graph

Search for Another Location

Airport:

Trip Planner

Search our weather history database for the weather conditions in past years. The results will help you decide how hot, cold, wet, or windy it might be!

Date:

Astronomy

Nov. 13, 2012 Rise Set
Actual Time 6:24 AM PST 4:50 PM PST
Civil Twilight 5:58 AM PST 5:17 PM PST
Nautical Twilight 5:27 AM PST 5:47 PM PST
Astronomical Twilight 4:58 AM PST 6:17 PM PST
Moon 6:07 AM PST (11/13) 4:49 PM PST (11/13)
Length of Visible Light 11h 19m
Length of Day
10h 26m
Waning Crescent, 0% of the Moon is Illuminated
Nov 13
Waning Crescent
Nov 13
New
Nov 20
First Quarter
Nov 28
Full
Dec 6
Last Quarter

Hourly Weather History & Observations

Time (PST) Temp. Dew Point Humidity Pressure Visibility Wind Dir Wind Speed Gust Speed Precip Events Conditions
12:53 AM 57.0 °F 19.9 °F 24% 30.12 in 10.0 mi East 4.6 mph - N/A   Clear
1:53 AM 54.0 °F 19.0 °F 25% 30.11 in 10.0 mi NE 3.5 mph - N/A   Clear
2:53 AM 57.0 °F 18.0 °F 22% 30.11 in 10.0 mi Calm Calm - N/A   Clear
3:53 AM 54.0 °F 18.0 °F 24% 30.10 in 10.0 mi ESE 3.5 mph - N/A   Clear
4:53 AM 53.1 °F 19.0 °F 26% 30.09 in 10.0 mi East 3.5 mph - N/A   Clear
5:53 AM 52.0 °F 19.9 °F 28% 30.09 in 10.0 mi East 3.5 mph - N/A   Partly Cloudy
6:53 AM 55.4 °F 17.6 °F 23% 30.10 in 10.0 mi East 3.5 mph - N/A   Scattered Clouds
7:53 AM 61.0 °F 17.1 °F 18% 30.12 in 10.0 mi NE 4.6 mph - N/A   Partly Cloudy
8:53 AM 69.1 °F 14.0 °F 12% 30.11 in 10.0 mi North 6.9 mph - N/A   Partly Cloudy
9:53 AM 73.0 °F 17.1 °F 12% 30.09 in 10.0 mi NE 3.5 mph - N/A   Clear
10:53 AM 77.0 °F 15.1 °F 10% 30.07 in 10.0 mi SE 3.5 mph - N/A   Clear
11:53 AM 80.1 °F 12.9 °F 8% 30.06 in 10.0 mi Variable 5.8 mph - N/A   Clear
12:53 PM 73.9 °F 21.9 °F 14% 30.04 in 10.0 mi WNW 10.4 mph - N/A   Clear
1:53 PM 70.0 °F 36.0 °F 29% 30.02 in 10.0 mi West 10.4 mph - N/A   Clear
2:53 PM 69.1 °F 39.9 °F 35% 30.01 in 10.0 mi West 11.5 mph - N/A   Clear
3:53 PM 69.1 °F 36.0 °F 30% 30.01 in 10.0 mi West 9.2 mph - N/A   Clear
4:53 PM 64.9 °F 43.0 °F 45% 30.01 in 10.0 mi West 6.9 mph - N/A   Clear
5:53 PM 63.0 °F 45.0 °F 52% 30.01 in 10.0 mi WSW 5.8 mph - N/A   Clear
6:53 PM 64.9 °F 43.0 °F 45% 30.01 in 10.0 mi Calm Calm - N/A   Clear
7:53 PM 66.9 °F 30.9 °F 26% 30.00 in 10.0 mi Calm Calm - N/A   Clear
8:53 PM 66.0 °F 28.0 °F 24% 30.01 in 10.0 mi ENE 3.5 mph - N/A   Clear
9:53 PM 66.9 °F 19.0 °F 16% 30.01 in 10.0 mi NE 4.6 mph - N/A   Clear
10:53 PM 66.9 °F 17.1 °F 15% 30.02 in 10.0 mi NE 4.6 mph - N/A   Clear
11:53 PM 64.9 °F 18.0 °F 16% 30.03 in 10.0 mi NE 3.5 mph - N/A   Clear